Regional Weather Roundup
Issued by NWS Green Bay, WI

Home | Current Version | Previous Version | Graphics & Text | Print | Product List | Glossary Off
Versions: 1 2 3 4 5 6 7 8 9 10 11 12 13 14 15 16 17 18 19 20 21 22 23 24 25 26 27 28 29 30 31 32 33 34 35 36 37 38 39 40 41 42 43 44 45 46 47 48 49 50

000
ASUS43 KGRB 231959
RWRGRB

NORTH-CENTRAL AND NORTHEAST WISCONSIN REGIONAL WEATHER ROUNDUP
NATIONAL WEATHER SERVICE GREEN BAY WI
300 PM CDT THU OCT 23 2014

WIZ005-009-010>012-018-019-232100-
NORTH CENTRAL WISCONSIN

CITY           SKY/WX    TMP DP  RH WIND       PRES   REMARKS
IRONWOOD       CLOUDY    48  46  93 S6        29.95S
MANITOWISH WTR NOT AVBL
ARBOR VITAE    NOT AVBL
EAGLE RIVER    NOT AVBL
LAND O LAKES   NOT AVBL
RHINELANDER    LGT RAIN  44  43  96 S6        30.02S FOG
PHILLIPS       NOT AVBL
ANTIGO         NOT AVBL
TOMAHAWK       NOT AVBL
MERRILL        NOT AVBL
$$

WIZ013-073-232100-
NORTHEAST WISCONSIN

CITY           SKY/WX    TMP DP  RH WIND       PRES   REMARKS
IRON MOUNTAIN  LGT RAIN  45  42  89 S6        30.03F
MARINETTE      CLOUDY    52  43  71 SW9       30.06S
$$

WIZ017-030-035>037-045-232100-
CENTRAL WISCONSIN

CITY           SKY/WX    TMP DP  RH WIND       PRES   REMARKS
MEDFORD        NOT AVBL
WAUSAU         CLOUDY    46  44  93 S7        30.01F FOG
MOSINEE        LGT RAIN  45  45 100 S6        30.03F
MARSHFIELD     CLOUDY    47  46  97 S7        30.02F FOG
WISC RAPIDS    CLOUDY    47  46  97 S7        30.04F
STEVENS POINT  NOT AVBL
WAUPACA        NOT AVBL
SHAWANO        NOT AVBL
CLINTONVILLE   NOT AVBL
$$

WIZ038-039-048-051-232100-
FOX VALLEY

CITY           SKY/WX    TMP DP  RH WIND       PRES   REMARKS
NWS GREEN BAY  LGT RAIN  52  46  80 SW3       30.06F
APPLETON       LGT RAIN  48  45  87 S6        30.05F FOG
OSHKOSH        LGT RAIN  50  47  89 W3        30.05F
FOND DU LAC    LGT RAIN  53  46  77 S5        30.04F
$$

WIZ022-050-052-232100-
EAST CENTRAL WISCONSIN

CITY           SKY/WX    TMP DP  RH WIND       PRES   REMARKS
STURGEON BAY   CLOUDY    52  43  71 SE9       30.07F
MANITOWOC      NOT AVBL
SHEBOYGAN      CLOUDY    52  43  71 SE9       30.07F
$$

LMZ563-521-522-541>543-232100-
LAKESHORE

STATION/POSITION TIME  TEMP    WIND        PRES    VSBY  WAVE
                       AIR SEA DIR/SP/G                  HT/PER
                 (UTC) (F)     (DEG/KT/KT) (MB)    (MI)  (FT/S)
SHEBOYGAN LKSHOR 1900   50 50  180/ 15/ 16 1019.5F
KEWAUNEE LKSHORE 1900   50     170/ 15/ 17 1017.8F
NORTHPORT PIER   1900   52     150/  8/ 15 1019.0S
N MID LAKE BUOY  1900   50 51  200/ 16/ 19 1019.9F         3/ 5
SISTER BAY LKSHO 1900          170/ 15/ 18   N/A
CHAMBERS ISLAND  1900   54     170/  4/  7 1018.6F
MENOMINEE LKSHOR 1900   53     200/  8/ 11 1018.8F
$$



USA.gov is the U.S. government's official web portal to all federal, state and local government web resources and services.